Terminal Aerodrome Forecast
Issued by NWS Goodland, KS

Home | Current Version | Previous Version | Text Only | Print | Product List | Glossary On
Versions: 1 2 3 4 5 6 7 8 9 10 11 12 13 14 15 16
000
FTUS43 KGLD 061720
TAFGLD
TAF
KGLD 061720Z 0618/0718 01020G30KT P6SM -SHRA SCT009 OVC015
      TEMPO 0618/0620 5SM BR BKN009
     FM062000 02015G25KT P6SM -SHRA BKN050
     FM070100 03008KT P6SM BKN100
     FM070600 VRB05KT P6SM SCT120
     FM071200 14010KT 6SM BR SCT120=

USA.gov is the U.S. government's official web portal to all federal, state and local government web resources and services.